GSAT-7

Last updated on Thu Oct 30 2025 00:02:49 GMT+0000 (Coordinated Universal Time)

1 39234U 13044B 25302.52297582 -.00000067 00000+0 00000+0 0 9997 2 39234 0.0449 77.4807 0006592 183.1061 39.8171 1.00271642 42946
UTC large
Height (km)
Speed (km/s)
/
Latitude / Longitude
Inclination (degrees)
Orbital Period (minutes)
Azimuth
Elevation
Range (km)
Doppler Factor

Next 0 passes for location: London (51.5072 / 0.1276)

Sorry there are no passes over London.